Findlay, OH

11:09 PM EDT on September 16, 2019 (GMT -0400)
Findlay

Weather History for KFDY - August, 2019

Change the Weather History Date:

Friday, August 23, 2019

  Actual Average Record
Temperature  
Mean Temperature 69 °F -  
Max Temperature 77 °F 79 °F 94 °F (1959)
Min Temperature 63 °F 60 °F 48 °F (1951)
Cooling Degree Days 4    
Growing Degree Days 19 (Base 50)    
Moisture  
Dew Point 54 °F    
Average Humidity 63    
Maximum Humidity 87    
Minimum Humidity 38    
Precipitation  
Precipitation 0.00 in - - ()
Sea Level Pressure  
Sea Level Pressure 30.12 in    
Wind  
Wind Speed 6 mph (NE)    
Max Wind Speed 17 mph    
Max Gust Speed 22 mph    
Visibility 10 miles    
Events      
Averages and records for this station are not official NWS values.
T = Trace of Precipitation, MM = Missing Value Source: NWS Daily Summary

Daily Weather History Graph

Daily Weather History Graph

Search for Another Location

Airport or City:

Astronomy

Aug. 23, 2019 Rise Set
Actual Time 6:52 AM EDT 8:21 PM EDT
Civil Twilight 6:23 AM EDT 8:50 PM EDT
Nautical Twilight 5:48 AM EDT 9:25 PM EDT
Astronomical Twilight 5:11 AM EDT 10:01 PM EDT
Moon 12:09 AM EDT (8/23) 2:31 PM EDT (8/23)
Length of Visible Light 14h 27m
Length of Day
13h 29m
Waning Gibbous, 50% of the Moon is Illuminated
Aug 23
Waning Gibbous
Aug 30
New
Sep 5
First Quarter
Sep 14
Full
Sep 21
Last Quarter

Hourly Weather History & Observations

Time (EDT) Temp. Dew Point Humidity Pressure Visibility Wind Dir Wind Speed Gust Speed Precip Events Conditions
12:53 AM 66.0 °F 60.1 °F 81% 30.03 in 10.0 mi NE 3.5 mph - N/A   Clear
1:53 AM 64.9 °F 60.1 °F 84% 30.04 in 10.0 mi NE 3.5 mph - N/A   Clear
2:53 AM 64.0 °F 60.1 °F 87% 30.05 in 10.0 mi ENE 5.8 mph - N/A   Clear
3:53 AM 64.0 °F 59.0 °F 84% 30.06 in 10.0 mi NNE 5.8 mph - N/A   Clear
4:53 AM 64.0 °F 59.0 °F 84% 30.06 in 10.0 mi NE 5.8 mph - N/A   Scattered Clouds
5:53 AM 63.0 °F 57.9 °F 84% 30.07 in 10.0 mi NNE 4.6 mph - N/A   Partly Cloudy
6:53 AM 63.0 °F 57.0 °F 81% 30.09 in 10.0 mi NE 5.8 mph - N/A   Mostly Cloudy
7:53 AM 64.0 °F 57.0 °F 78% 30.11 in 10.0 mi ENE 5.8 mph - N/A   Clear
8:53 AM 66.9 °F 55.9 °F 68% 30.13 in 10.0 mi ENE 8.1 mph - N/A   Partly Cloudy
9:53 AM 69.1 °F 55.9 °F 63% 30.13 in 10.0 mi ENE 9.2 mph - N/A   Clear
10:53 AM 71.1 °F 55.0 °F 57% 30.13 in 10.0 mi NE 10.4 mph - N/A   Clear
11:53 AM 73.9 °F 52.0 °F 46% 30.15 in 10.0 mi NNE 11.5 mph - N/A   Partly Cloudy
12:53 PM 73.9 °F 54.0 °F 50% 30.14 in 10.0 mi ENE 10.4 mph 17.3 mph N/A   Mostly Cloudy
1:53 PM 73.9 °F 52.0 °F 46% 30.14 in 10.0 mi NE 13.8 mph 20.7 mph N/A   Mostly Cloudy
2:53 PM 73.0 °F 50.0 °F 44% 30.15 in 10.0 mi NE 6.9 mph - N/A   Overcast
3:53 PM 75.0 °F 48.9 °F 40% 30.13 in 10.0 mi NE 11.5 mph 20.7 mph N/A   Partly Cloudy
4:53 PM 75.0 °F 48.9 °F 40% 30.13 in 10.0 mi ENE 17.3 mph 21.9 mph N/A   Partly Cloudy
5:53 PM 75.0 °F 48.0 °F 38% 30.13 in 10.0 mi NE 6.9 mph - N/A   Clear
6:53 PM 73.9 °F 48.0 °F 40% 30.14 in 10.0 mi NE 10.4 mph - N/A   Clear
7:53 PM 72.0 °F 50.0 °F 46% 30.14 in 10.0 mi NE 8.1 mph - N/A   Clear
8:53 PM 68.0 °F 52.0 °F 56% 30.14 in 10.0 mi ENE 4.6 mph - N/A   Clear
9:53 PM 64.9 °F 53.1 °F 65% 30.16 in 10.0 mi East 4.6 mph - N/A   Clear
10:53 PM 64.0 °F 55.0 °F 73% 30.18 in 10.0 mi Calm Calm - N/A   Clear
11:53 PM 64.9 °F 57.0 °F 75% 30.19 in 10.0 mi ENE 5.8 mph - N/A   Mostly Cloudy